This is the latest recevied weather packets stored in our database for station/object NK7I. If no packets are shown the sender has not sent any weather packets the latest 10 day(s).
| Time | Temp. | Humidity | Pressure | Rain* | Wind** | Luminosity | Snow |
|---|---|---|---|---|---|---|---|
| 1777770682 | 23.33° C | 38% | 1012.1 hPa | 0 mm | - | 72 W/m² | - |
| 1777770382 | 23.33° C | 39% | 1012.1 hPa | 0 mm | - | 70 W/m² | - |
| 1777770083 | 23.33° C | 33% | 1012.1 hPa | 0 mm | - | 299 W/m² | - |
| 1777769782 | 23.33° C | 36% | 1012.3 hPa | 0 mm | - | 357 W/m² | - |
| 1777769482 | 23.33° C | 35% | 1012.4 hPa | 0 mm | - | 376 W/m² | - |
| 1777769182 | 23.33° C | 35% | 1012.4 hPa | 0 mm | - | 403 W/m² | - |
| 1777768887 | 23.33° C | 34% | 1012.4 hPa | 0 mm | - | 432 W/m² | - |
| 1777768882 | 23.33° C | 37% | 1012.4 hPa | 0 mm | - | 432 W/m² | - |
| 1777768582 | 22.78° C | 39% | 1012.4 hPa | 0 mm | - | 464 W/m² | - |
| 1777768283 | 22.78° C | 39% | 1012.4 hPa | 0 mm | - | 501 W/m² | - |
| 1777767982 | 22.78° C | 39% | 1012.4 hPa | 0 mm | - | 487 W/m² | - |
| 1777767682 | 22.78° C | 38% | 1012.4 hPa | 0 mm | - | 127 W/m² | - |
| 1777767382 | 22.78° C | 36% | 1012.5 hPa | 0 mm | - | 487 W/m² | - |
| 1777767082 | 22.78° C | 36% | 1012.3 hPa | 0 mm | - | 503 W/m² | - |
| 1777766782 | 22.78° C | 39% | 1012.4 hPa | 0 mm | - | 559 W/m² | - |
| 1777766482 | 22.78° C | 38% | 1012.4 hPa | 0 mm | - | 142 W/m² | - |
| 1777766182 | 23.33° C | 38% | 1012.3 hPa | 0 mm | - | 292 W/m² | - |
| 1777765882 | 23.33° C | 40% | 1012.4 hPa | 0 mm | - | 424 W/m² | - |
| 1777765583 | 23.89° C | 39% | 1012.4 hPa | 0 mm | - | 306 W/m² | - |
| 1777765282 | 23.89° C | 37% | 1012.4 hPa | 0 mm | - | 227 W/m² | - |
| 1777764982 | 24.44° C | 38% | 1012.5 hPa | 0 mm | - | 267 W/m² | - |
| 1777764682 | 24.44° C | 36% | 1012.6 hPa | 0 mm | - | 499 W/m² | - |
| 1777764382 | 24.44° C | 35% | 1012.7 hPa | 0 mm | - | 216 W/m² | - |
| 1777764082 | 24.44° C | 34% | 1012.6 hPa | 0 mm | - | 905 W/m² | - |
| 1777763783 | 24.44° C | 33% | 1012.7 hPa | 0 mm | - | 907 W/m² | - |
* Rain latest hour (hover to see other rain measurements)
** Current wind speed in m/s (hover to see current wind gust speed)